Content
SEND FEEDBACK

Daily
Averages
Monthly
Summary
United States of America

ORANGE LAKE, NEW YORK


Home > North America > United States > New York
Elevation: 581 feet     Latitude: 41 47N     Longitude: 074 58W

WEATHER
 
SELECT A DAY
Number of Records: 148,218;   Date Range: 11/1/95 - 8/30/14
 
SHARE

PRINT THIS DATA

[ ← Previous Day ]
WEATHER ALMANAC - JUNE 26, 2013
[ Next Day → ]
[ °C ]   °F
We're sorry. There is no daily almanac available for Orange Lake, New York on June 26, 2013.
WEATHER BY HOUR - JUNE 26, 2013
[ °C ]   °F
Local TimeTemperatureDewpointHumidityBarometerVisibilityWind DirectionWind SpeedGust SpeedPrecipitationEventsConditions
1:51 AM78.1 °F68.0 °F71 %29.79 in9.0 miWest (270°)3.5 mphClear
2:51 AM77.0 °F68.0 °F74 %29.78 in8.0 miVariable4.6 mphClear
3:51 AM75.9 °F66.0 °F71 %29.80 in10.0 miWNW (290°)8.1 mphClear
4:51 AM75.9 °F64.9 °F69 %29.81 in10.0 miWest (280°)6.9 mph17.3 mphClear
5:51 AM75.0 °F64.0 °F69 %29.83 in9.0 miVariable4.6 mphClear
6:51 AM73.9 °F64.9 °F73 %29.84 in9.0 miCalmClear
7:51 AM75.9 °F64.0 °F67 %29.85 in9.0 miVariable5.8 mphClear
8:51 AM78.1 °F64.9 °F64 %29.85 in10.0 miNorthClear
9:51 AM80.1 °F64.0 °F58 %29.84 in10.0 miVariable5.8 mphClear
10:51 AM82.9 °F64.9 °F54 %29.84 in10.0 miVariable4.6 mphClear
11:51 AM82.9 °F63.0 °F51 %29.83 in10.0 miWest (280°)6.9 mphClear
12:51 PM81.0 °F66.0 °F60 %29.85 in10.0 miVariable4.6 mphScattered Clouds
1:51 PM80.1 °F64.9 °F60 %29.85 in10.0 miVariable4.6 mphClear
2:51 PM81.0 °F64.9 °F58 %29.84 in9.0 miVariable4.6 mph18.4 mphClear
3:51 PM82.9 °F66.0 °F56 %29.81 in10.0 miVariable5.8 mphClear
4:51 PM82.9 °F64.9 °F54 %29.80 in10.0 miVariable5.8 mphClear
5:51 PM82.9 °F64.0 °F53 %29.79 in10.0 miNorthClear
6:51 PM77.0 °F66.9 °F71 %29.80 in1.0 miCalm0.05 inRainLight Rain
6:57 PM73.9 °F70.0 °F87 %29.82 in4.0 miWest (270°)3.5 mph0.00 inRainLight Rain
7:51 PM77.0 °F69.1 °F76 %29.81 in9.0 miCalm0.00 inOvercast
8:51 PM75.9 °F69.1 °F79 %29.80 in9.0 miSSE (160°)4.6 mphPartly Cloudy
9:51 PM78.1 °F69.1 °F74 %29.81 in9.0 miCalmMostly Cloudy
10:51 PM79.0 °F68.0 °F69 %29.82 in10.0 miCalmScattered Clouds
11:51 PM75.9 °F68.0 °F76 %29.83 in8.0 miVariable3.5 mphPartly Cloudy
Hourly data recorded from KNYC, located miles away from Orange Lake, New York







STORIES FROM OUR PARTNERS